Regional Weather Roundup
Issued by NWS Goodland, KS

Home | Current Version | Previous Version | Text Only | Print | Product List | Glossary Off
Versions: 1 2 3 4 5 6 7 8 9 10 11 12 13 14 15 16 17 18 19 20 21 22 23 24 25 26 27 28 29 30 31 32 33 34 35 36 37 38 39 40 41 42 43 44 45 46 47 48 49 50

000
ASUS43 KGLD 041608
RWRGLD

GOODLAND FORECAST AREA HOURLY WEATHER ROUNDUP
NATIONAL WEATHER SERVICE GOODLAND KS
900 AM MST WED MAR 04 2015

...OFFICIAL OBSERVATIONS...

CITY           SKY/WX    TMP DP  RH WIND       PRES   REMARKS
GOODLAND KS    CLOUDY    20   9  62 N14       30.24R WCI   7
HILL CITY KS   FAIR      23  11  60 N10       30.32R WCI  12
IMPERIAL NEB     N/A     17   7  64 W12       30.25R WCI   4
MCCOOK NEB     PTSUNNY   21  12  68 W6        30.29R
AKRON CO       MOSUNNY   14   6  70 W9        30.17R
BURLINGTON CO  CLOUDY    17   6  62 N14       30.21R WCI   3
LIMON CO       CLOUDY    10   5  80 N7        30.15R
$$

...UNOFFICIAL OBSERVATIONS...

CITY           SKY/WX    TMP DP  RH WIND       PRES   REMARKS
COLBY KS       PTSUNNY   21  16  79 N9        30.27R
GOVE KS          N/A     21  32 100 MISG        N/A
LENORA KS        N/A     20  32 100 S8          N/A
NORTON KS      PTSUNNY   19  10  68 NW9       30.30R
SHARON SPRINGS   N/A     18  15  86 NE5G13      N/A
KIT CARSON CO    N/A     14  10  83 MISG        N/A
YUMA CO          N/A     16   9  74 W8          N/A
$$



USA.gov is the U.S. government's official web portal to all federal, state and local government web resources and services.